www.pogodaiklimat.ru

Погода и климат >> Архив погоды >> Россия >> Хабаровский край >> Сутур


ПОГОДА в Сутуре

  • Прогноз погоды в Сутуре
  • Монитор погоды в Сутуре

АРХИВ ПОГОДЫ в Сутуре

Время (UTC), дата Ветер
(напр.,м/с)
 
Видим.   Явления Облачность Т
(С)
Тd
(С)
f
(%)
Тe
(С)
Тes
(С)
Комфортность P
(гПа)
Po
(гПа)
Тmin
(С)
Tmax
(С)
R
(мм)
R24
(мм)
S
(см)
09 18.06 З 1 50 км гроза без осадков 6/3 600 м
[Cb cap Ac lent Ci fib]
+21.6 +8.0 42 +23 +24 комфорт 999.9 960.5 +22.8
12 18.06 ЮЗ 2 50 км гроза без осадков 8/3 600 м
[Cb cap Ac lent]
+16.2 +7.3 56 +16 +16 1000.6 960.5
15 18.06 З 1 20 км гроза без осадков 9/6 600 м
[Cb cap Ac lent]
+13.3 +8.4 72 +14 +14 1000.5 960.0
18 18.06 В 2 20 км {гроза, ливн. осадки} 8/3 600 м
[Cb cap Ac lent]
+10.8 +9.2 90 +9 +9 998.4 957.6
21 18.06 В 2 50 км 10/6 600 м
[Cb cap Ac lent]
+11.0 +9.2 89 +10 +10 997.4 956.8 +10.4 2
00 19.06 ЮВ 1 20 км ливневой дождь 10/10 600 м
[Cb cap]
+12.0 +10.4 90 +12 +12 997.3 956.8
03 19.06 ЮЗ 1 50 км {ливн. осадки} 10/6 600 м
[Cb cap Ac lent]
+12.2 +8.9 80 +12 +14 998.6 958.1
06 19.06 В 3 50 км {ливн. осадки} 10/8 600 м
[Cb cap Ac lent]
+13.7 +9.8 77 +13 +13 999.4 959.0
09 19.06 С 1 50 км в посл. час ливневой дождь 10/8 600 м
[Cb cap Ac lent]
+11.2 +8.9 86 +11 +11 1001.2 960.4 +14.1 12
12 19.06 С 2 20 км слаб. ливневой дождь 10/9 600 м
[Cb cap Ac lent]
+9.1 +7.4 89 +7 +7 1002.7 961.5
15 19.06 СВ 3 20 км {ливн. осадки} 10/8 600 м
[Cb cap Ac lent]
+10.2 +7.8 85 +8 +8 1003.7 962.6
18 19.06 СВ 1 20 км {ливн. осадки} 10/6 600 м
[Cb cap Ac lent]
+9.2 +7.4 88 +9 +9 1004.7 963.4
21 19.06 СВ 2 50 км 10/4 600 м
[Cb cap Ac lent]
+10.6 +7.7 82 +9 +9 1005.8 964.7 +8.8 3
00 20.06 СВ 2 50 км 10/6 600 м
[Sc Ac As]
+13.7 +8.7 72 +13 +14 1006.6 966.0
03 20.06 В 3 50 км 8/6 600 м
[Sc Ac As]
+18.2 +9.8 58 +19 +22 1006.3 966.2
06 20.06 С 2 50 км 8/3 1000 м
[Cu med, cong Ci fib]
+21.6 +10.5 49 +23 +31 комфорт 1005.5 966.0
09 20.06 Ю 1 50 км 8/6 600 м
[Cb cap Ac As]
+16.6 +12.8 78 +17 +18 1006.6 966.4 +23.4
12 20.06 ЮВ 1 50 км 6/0
[Ac trans Ci fib]
+14.2 +12.2 88 +15 +15 1008.5 967.8
15 20.06 С 1 20 км 4/0
[Ac trans]
+11.7 +10.3 91 +11 +11 1010.3 969.2
18 20.06 штиль 0 20 км местами туман поземный 8/0
[Ac trans Ci fib]
+8.8 +7.4 91 +8 +8 1011.0 969.4
21 20.06 СВ 1 50 км местами туман поземный 9/0
[Ac As]
+9.1 +7.8 92 +8 +9 1011.8 970.2 +7.7
00 21.06 штиль 0 50 км 10/4 600 м
[Sc Ac As]
+14.6 +10.9 78 +14 +17 1011.2 970.5
03 21.06 Ю 1 50 км 10/3 600 м
[Cb cap Ac trans Ci fib]
+20.4 +11.2 55 +23 +31 комфорт 1008.9 969.1
06 21.06 С 2 50 км в посл. час ливневой дождь 10/4 600 м
[Cb cap Ac As Ci fib]
+18.0 +13.0 73 +19 +22 1008.3 968.2
09 21.06 СВ 1 50 км 10/3 600 м
[Cb cap Ac lent Ci ing]
+19.7 +12.6 64 +22 +23 комфорт 1008.6 968.7 +24.2 0.5
12 21.06 С 1 50 км 10/3 600 м
[Sc diur, vesp Ac lent Ci fib]
+16.0 +11.9 77 +17 +17 1010.5 970.0
15 21.06 С 1 20 км 4/0
[Ac lent]
+13.0 +11.2 89 +13 +13 1011.2 970.2
18 21.06 С 1 20 км местами туман поземный ясно +9.7 +8.3 91 +9 +9 1012.0 970.5
21 21.06 С 1 50 км местами туман поземный 8/0
[Ci fib]
+9.4 +8.1 92 +9 +10 1012.7 971.2 +8.5
00 22.06 ЮЗ 1 50 км 3/0
[Ci fib]
+17.1 +12.4 74 +18 +30 опасность
простуды
1011.9 971.5
03 22.06 СВ 1 50 км 3/3 1000 м
[Cu med, cong]
+23.9 +11.5 46 +25 +40 комфорт 1009.5 970.1
06 22.06 З 1 50 км 3/3 1000 м
[Cu med, cong Ac lent]
+26.9 +10.2 35 +27 +38 жарко 1007.1 968.2
09 22.06 Ю 2 50 км 9/4 600 м
[Cb cap Ac lent]
+23.1 +12.6 52 +26 +26 жарко 1007.0 967.6 +27.5
12 22.06 штиль 0 50 км 8/4 600 м
[Cb cap Ac lent]
+18.8 +13.3 70 +20 +20 1008.9 968.9
15 22.06 СВ 2 20 км 4/3 600 м
[Cb cap Ac lent]
+17.3 +12.0 71 +18 +18 1009.9 969.6
18 22.06 СЗ 1 20 км 8/3 600 м
[Cb cap Ac lent]
+13.0 +11.1 88 +13 +13 1010.0 969.1
21 22.06 С 1 50 км 3/0
[Ac lent]
+13.3 +10.9 85 +13 +15 1010.6 969.7 +12.6
00 23.06 В 1 50 км 10/0
[Ac lent Ci fib]
+21.6 +13.8 61 +24 +32 комфорт 1009.0 969.4
03 23.06 С 1 50 км 8/4 600 м
[Cu med, cong Ci fib]
+26.1 +12.0 41 +27 +38 жарко 1007.4 968.4
06 23.06 ЮЗ 2 50 км 10/6 600 м
[Cb cap Ac lent Ci fib]
+25.6 +11.9 42 +27 +29 жарко 1005.8 966.8
09 23.06 Ю 2 50 км 10/6 600 м
[Cb cap Ac lent Ci fib]
+24.8 +14.2 52 +27 +28 жарко 1005.9 966.8 +28.2
12 23.06 В 2 20 км слаб. ливневой дождь 10/8 600 м
[Cb cap Ac lent]
+18.0 +15.3 84 +19 +19 1008.4 968.4
15 23.06 штиль 0 20 км 10/4 600 м
[Cb cap Ac lent]
+15.7 +13.9 89 +15 +15 1008.4 968.6
18 23.06 штиль 0 20 км 6/4 600 м
[Cb cap Ac lent]
+14.4 +13.0 91 +14 +14 1009.1 968.5
21 23.06 С 1 50 км местами туман поземный 10/0
[Ac und]
+14.7 +13.3 91 +15 +16 1009.2 968.6 +14.1 2
00 24.06 ЮВ 1 50 км 4/0
[Ac trans Ci fib]
+21.7 +15.9 70 +25 +36 комфорт 1007.4 967.9
03 24.06 Ю 3 50 км 8/4 600 м
[Cb cap Ac trans]
+26.0 +15.0 51 +29 +34 душно 1005.5 966.6
06 24.06 Ю 4 50 км 10/6 600 м
[Cb cap Ac As]
+24.3 +13.9 52 +27 +28 жарко 1004.2 965.1
09 24.06 Ю 2 50 км 10/8 600 м
[Cb cap Ac As]
+23.0 +16.2 66 +28 +28 душно 1004.2 965.0 +27.4
12 24.06 ЮВ 1 50 км 10/6 600 м
[Cb cap Ac As]
+21.7 +15.9 70 +25 +25 комфорт 1004.1 964.7
15 24.06 ЮВ 1 20 км 10/6 600 м
[Cb cap Ac As]
+20.0 +15.6 76 +24 +24 комфорт 1003.3 963.7
18 24.06 ЮЗ 1 20 км 10/8 600 м
[Cb cap Ac As]
+20.5 +15.3 72 +24 +24 комфорт 1002.7 963.2
21 24.06 Ю 2 50 км 10/4 600 м
[Sc Ac As]
+19.6 +15.5 77 +22 +22 комфорт 1004.0 964.3 +19.5
00 25.06 З 3 50 км 10/6 600 м
[Sc Ac As]
+20.0 +14.1 69 +22 +23 комфорт 1004.2 964.6
03 25.06 З 3 50 км 10/3 600 м
[Cu hum Ac trans Ci fib]
+20.7 +12.9 61 +23 +29 комфорт 1005.0 965.4
06 25.06 СЗ 2 50 км 3/3 1000 м
[Cu hum]
+25.9 +10.5 38 +27 +35 жарко 1003.1 964.2

 

Местоположение метеостанции Сутур (Хабаровский край, Россия): широта 50.07 долгота 132.10 высота над уровнем моря 349 м.

В архиве по умолчанию представлена погода в Сутуре за последнюю неделю. Архивные данные за месяц целиком и за предыдущие месяцы, начиная с января 2011 года, Вы можете получить, выбрав интересующий диапазон дат из раскрывающегося списка и нажав кнопку "Ввод!".


*Определитесь, кто Вы:
робот инопланетянин человек

Внимание! Время в таблицах - всемирное. Для получения местного времени необходимо прибавить поправку, которая равна 10 ч.

Смотрите также архив погоды в соседних городах и на ближайших метеорологических станциях:

Погода в Сектагли (Хабаровский край, Россия) (88 км)
Погода в Чекунде (Хабаровский край, Россия) (89 км)
Погода в Верховье Урми (Хабаровский край, Россия) (100 км)
Погода в Урми (Хабаровский край, Россия) (109 км)
Погода в Чегдомыне (Хабаровский край, Россия) (135 км)
Погода в Облучье (Еврейская автономная область, Россия) (143 км)
Погода в Биробиджане (Еврейская автономная область, Россия) (160 км)
Погода в Малиновке (Амурская область, Россия) (161 км)
Погода в Архаре (Амурская область, Россия) (167 км)
Погода в Куре (Хабаровский край, Россия) (179 км)

Пояснения к столбцам:

Ветер - указаны скорость ветра в м/с - средняя за 10 мин, порывы в срок и между сроками (в фигурных скобках) и направление, откуда дует ветер: С - северный, СВ - северо-восточный, В - восточный, ЮВ - юго-восточный, Ю - южный, ЮЗ - юго-западный, З - западный, СЗ - северо-западный.
Видимость - горизонтальная дальность видимости в метрах или километрах. При видимости от 1 до 10 км при отсутствии осадков обычно наблюдается дымка, при ухудшении видимости до 1 км и менее - туман. В сухую погоду видимость может ухудшаться дымом, пылью или мглою.
Явления - указаны атмосферные явления, наблюдавшиеся в срок или в последний час перед сроком; фигурными скобками обозначены явления, наблюдавшиеся между сроками (за 1-3 часа до срока); квадратными скобками обозначены град или гололедные отложения с указанием их диаметра в мм.
Облачность - указаны через наклонную черту общая и нижняя облачность в баллах и высота нижней границы облаков в метрах; квадратными скобками обозначены формы облаков: Ci - перистые, Cs - перисто-слоистые, Cc - перисто-кучевые, Ac - высококучевые, As - высокослоистые, Sc - слоисто-кучевые, Ns - слоисто-дождевые, Cu - кучевые, Cb - кучево-дождевые. Подробнее классификацию облаков см. в Атласе облаков (PDF).
T - Температура воздуха - температура, измеренная на высоте 2 м над землей.
Td - Температура точки росы - температура, при понижении до которой содержащийся в воздухе водяной пар достигнет насыщения.
f - Относительная влажность воздуха - влажноcть воздуха, измеренная на высоте 2 м над землей.
Te - Эффективная температура - температура, которую ощущает одетый по сезону человек в тени. Характеристика душности погоды. При расчете учитывается влияние влажности воздуха и скорости ветра на теплоощущения человека.
Tes - Эффективная температура на солнце - температура, которую ощущает человек, с поправкой на солнечный нагрев. Характеристика знойности погоды. Зависит от высоты солнца над горизонтом, облачности и скорости ветра. Ночью, в пасмурную погоду, а также при ветре 12 м/с и более поправка равна нулю.
P - Атмосферное давление - приведенное к уровню моря атмосферное давление.
Po - Атмосферное давление - измеренное на уровне метеостанции атмосферное давление.
Tmin - Минимальная температура - минимум температуры воздуха на высоте 2 м над землей.
Tmax - Максимальная температура - максимум температуры воздуха на высоте 2 м над землей.
R - Количество осадков - Количество выпавших осадков за период времени, мм. При наведении курсора мыши на число - период времени, за который выпало указанное количество осадков.
R24 - Количество осадков - Количество выпавших осадков за 24 часа, мм.
S - Снежный покров - Высота снежного покрова, см. При наведении курсора мыши на число - состояние снежного покрова и степень покрытия местности в баллах.